Guadalupe Pass, TX

3:20 AM MST on November 19, 2017 (GMT -0700)
Guadalupe Pass

Weather History for KGDP - February, 2013

Change the Weather History Date:

Tuesday, February 19, 2013

  Actual Average Record
Temperature  
Mean Temperature 42 °F -  
Max Temperature 46 °F 54 °F 79 °F (2016)
Min Temperature 37 °F 34 °F 25 °F (2006)
Degree Days  
Heating Degree Days 24    
Moisture  
Dew Point 33 °F    
Average Humidity 78    
Maximum Humidity 100    
Minimum Humidity 32    
Precipitation  
Precipitation 0.73 in - - ()
Sea Level Pressure  
Sea Level Pressure 29.98 in    
Wind  
Wind Speed 23 mph (ENE)    
Max Wind Speed 33 mph    
Max Gust Speed 24 mph    
Visibility 4 miles    
Events Fog , Rain    
Averages and records for this station are not official NWS values.
T = Trace of Precipitation, MM = Missing Value Source: NWS Daily Summary

Daily Weather History Graph

Daily Weather History Graph

Search for Another Location

Airport or City:

Trip Planner

Search our weather history database for the weather conditions in past years. The results will help you decide how hot, cold, wet, or windy it might be!

Date:

Astronomy

Feb. 19, 2013 Rise Set
Actual Time 6:36 AM MST 5:49 PM MST
Civil Twilight 6:12 AM MST 6:14 PM MST
Nautical Twilight 5:43 AM MST 6:42 PM MST
Astronomical Twilight 5:15 AM MST 7:11 PM MST
Moon 12:33 PM MST 2:00 AM MST
Length of Visible Light 12h 02m
Length of Day
11h 12m
Waxing Gibbous, 68% of the Moon is Illuminated
Feb 19
Waxing Gibbous
Feb 25
Full
Mar 4
Last Quarter
Mar 11
New
Mar 19
First Quarter

Hourly Weather History & Observations

Time (MST) Temp. Windchill Dew Point Humidity Pressure Visibility Wind Dir Wind Speed Gust Speed Precip Events Conditions
12:51 AM 39.9 °F 28.6 °F 12.0 °F 32% 29.99 in 9.0 mi NE 28.8 mph - N/A   Clear
1:51 AM 37.9 °F 25.5 °F 14.0 °F 38% 30.00 in 9.0 mi NE 31.1 mph - N/A   Clear
2:51 AM 37.0 °F 24.7 °F 15.1 °F 41% 30.00 in 9.0 mi NE 28.8 mph - N/A   Clear
3:51 AM 37.9 °F 25.7 °F 16.0 °F 41% 29.99 in 9.0 mi NE 29.9 mph - N/A   Clear
4:51 AM 37.9 °F 25.7 °F 16.0 °F 41% 30.00 in 9.0 mi NE 29.9 mph - N/A   Clear
5:51 AM 37.0 °F 24.1 °F 16.0 °F 42% 30.00 in 9.0 mi NE 32.2 mph - N/A   Clear
6:51 AM 37.0 °F 24.1 °F 17.1 °F 44% 30.00 in 8.0 mi NE 32.2 mph - N/A   Clear
7:51 AM 39.9 °F 28.0 °F 18.0 °F 41% 30.01 in 8.0 mi NE 32.2 mph - N/A   Clear
8:51 AM 41.0 °F 29.3 °F 19.0 °F 41% 30.01 in 8.0 mi ENE 33.4 mph - N/A   Clear
9:51 AM 41.0 °F 30.0 °F 19.9 °F 43% 30.02 in 8.0 mi ENE 28.8 mph - N/A   Clear
10:51 AM 42.1 °F 32.6 °F 19.9 °F 41% 30.03 in 8.0 mi ENE 23.0 mph - N/A   Overcast
11:51 AM 42.1 °F 35.7 °F 19.0 °F 40% 30.03 in 8.0 mi East 11.5 mph - N/A   Overcast
12:51 PM 43.0 °F 38.8 °F 18.0 °F 37% 30.00 in 8.0 mi East 6.9 mph - N/A   Overcast
1:51 PM 46.0 °F 38.5 °F 34.0 °F 63% 29.96 in 6.0 mi SSW 19.6 mph 24.2 mph 0.01 in Rain Light Rain
2:11 PM 44.1 °F 35.4 °F 37.0 °F 76% 30.00 in 7.0 mi SSW 21.9 mph - 0.00 in Rain Light Rain
2:51 PM 43.0 °F 34.2 °F 41.0 °F 93% 29.97 in 5.0 mi WSW 20.7 mph - 0.02 in Rain Light Rain
3:12 PM 43.0 °F 34.2 °F 41.0 °F 93% 30.00 in 1.5 mi WSW 20.7 mph - 0.02 in Rain Light Rain
3:14 PM 43.0 °F 34.2 °F 41.0 °F 93% 30.00 in 0.8 mi WSW 20.7 mph - 0.02 in Rain Light Rain
3:21 PM 43.0 °F 34.0 °F 42.1 °F 97% 30.00 in 0.2 mi WSW 21.9 mph - 0.03 in Fog , Rain Light Rain
3:42 PM 43.0 °F 33.1 °F 42.1 °F 97% 29.99 in 0.2 mi WSW 26.5 mph - 0.05 in Fog , Rain Light Rain
3:51 PM 43.0 °F 33.1 °F 42.1 °F 97% 29.95 in 0.2 mi WSW 26.5 mph - 0.07 in Fog , Rain Rain
5:51 PM 42.1 °F 31.5 °F 42.1 °F 100% 29.98 in 0.2 mi SW 28.8 mph - 0.16 in Fog , Rain Rain
6:49 PM 42.8 °F 35.4 °F 41.0 °F 93% 30.04 in 0.2 mi SW 15.0 mph - 0.15 in Fog , Rain Rain
6:51 PM 42.1 °F 34.2 °F 41.0 °F 96% 30.00 in 0.2 mi SW 16.1 mph - 0.16 in Fog , Rain Rain
7:09 PM 41.0 °F 33.9 °F 41.0 °F 100% 30.03 in 0.2 mi West 12.7 mph - 0.06 in Fog , Rain Rain
7:20 PM 41.0 °F 34.7 °F 41.0 °F 100% 30.03 in 0.5 mi WSW 10.4 mph - 0.09 in Fog , Rain Rain
7:28 PM 41.0 °F 35.2 °F 41.0 °F 100% 30.03 in 0.2 mi WSW 9.2 mph - 0.11 in Fog , Rain Rain
7:43 PM 41.0 °F 34.7 °F 41.0 °F 100% 30.02 in 0.2 mi WSW 10.4 mph - 0.14 in Fog , Rain Rain
7:51 PM 41.0 °F 35.2 °F 39.9 °F 96% 29.99 in 0.5 mi WSW 9.2 mph - 0.16 in Fog , Rain Rain
8:17 PM 41.0 °F 35.2 °F 39.9 °F 96% 30.05 in 2.5 mi WSW 9.2 mph - 0.06 in Rain Rain
8:24 PM 41.0 °F 35.2 °F 39.9 °F 96% 30.05 in 5.0 mi WSW 9.2 mph - 0.07 in Rain Rain
8:39 PM 41.0 °F 37.1 °F 39.9 °F 96% 30.03 in 6.0 mi WSW 5.8 mph - 0.09 in Rain Light Rain
8:51 PM 41.0 °F - 39.9 °F 96% 30.00 in 6.0 mi Calm Calm - 0.10 in Rain Light Rain
9:39 PM 41.0 °F 34.3 °F 39.9 °F 96% 30.02 in 2.5 mi East 11.5 mph - 0.04 in Rain Light Rain
9:45 PM 41.0 °F 33.9 °F 39.2 °F 93% 29.99 in 1.2 mi ENE 12.7 mph - 0.05 in Rain Light Rain
9:51 PM 41.0 °F 32.5 °F 39.9 °F 96% 29.95 in 0.8 mi ENE 17.3 mph - 0.05 in Rain Light Rain
10:07 PM 41.0 °F 32.5 °F 39.9 °F 96% 29.94 in 0.2 mi ENE 17.3 mph - 0.00 in Fog Fog
10:16 PM 41.0 °F 31.9 °F 39.9 °F 96% 29.94 in 0.2 mi ENE 19.6 mph - 0.00 in Fog Fog
10:51 PM 39.9 °F 29.2 °F 39.0 °F 97% 29.77 in 0.2 mi ENE 25.3 mph - 0.00 in Fog , Rain Light Rain
11:16 PM 37.9 °F 26.6 °F 37.9 °F 100% 29.82 in 0.5 mi ENE 25.3 mph - 0.00 in Fog Fog
11:31 PM 37.0 °F 24.7 °F 37.0 °F 100% 29.80 in 9.0 mi NE 28.8 mph - 0.00 in   Overcast
11:46 PM 37.4 °F 25.9 °F 37.4 °F 100% 29.81 in 10.0 mi ENE 25.3 mph - 0.00 in   Overcast
11:51 PM 37.0 °F 25.1 °F 37.0 °F 100% 29.75 in 10.0 mi ENE 26.5 mph - 0.00 in   Overcast